sat.trackr.live / text

‹ back to catalog

STARLINK-2195

NORAD 47772 · 2021-017BC

PAYLOAD ACTIVE UNKNOWN

§ Identity

Operator
Country
US
Launch date
2021-03-04
Launch site
AFETR
Launch vehicle
Mass (kg)
RCS (m²)

Purposes: comms

External: N2YO · Heavens-Above · Gunter

§ Orbital elements

Epoch: 2026-09-19T22:21:48.982752Z

Period
94.01 min
Inclination
53.1591°
Eccentricity
0.0000989
Mean motion
15.31735456 rev/d
Perigee alt
470.0 km
Apogee alt
471.3 km
Semi-major
6,848.8 km
B*
1.4631e-4
RAAN
33.3362°
Arg perigee
81.9072°
Mean anomaly
278.2042°
Rev number
30,742

§ Raw data

STARLINK-21951 47772U 21017BC  26262.93181693  .00004183  00000+0  14631-3 0  99992 47772  53.1591  33.3362 0000989  81.9072 278.2042 15.31735456307427

JSON: /api/v1/satellites/47772 · /tle

For live sub-satellite position, see the globe view (requires WebGL).

§ Visibility from observer

Set your observer location to see the next 7 days of passes ≥ 10°. The values pass through the URL so the page stays shareable.

No JS? Fill the form by hand. The geolocation button needs JavaScript.